[TLELIST] Archives

 

[list_settings.list_name] Current TLEs

December 17th 2022 PST

HST 1 20580U 90037B 22350.45848568 .00003723 00000-0 20413-3 0 9992 2 20580 28.4713 42.1329 0002482 193.3895 186.5675 15.11417742594039 ISS (ZARYA) 1 25544U 98067A 22351.22633102 .00011865 00000-0 21552-3 0 9991 2 25544 51.6430 149.8407 0003644 168.2704 192.5333 15.50003640373574 CXO 1 25867U 99040B 22350.50688168 .00000592 00000-0 00000-0 0 9990 2 25867 40.5464 218.6105 8981371 245.2549 0.0091 0.37815769 12485 ____________________________________________________________________ These 2-Line ...Continue Reading

[list_settings.list_name] Current TLEs

December 16th 2022 PST

HST 1 20580U 90037B 22349.89045727 .00003459 00000-0 18897-3 0 9993 2 20580 28.4713 45.9015 0002508 187.6800 335.4431 15.11413039593683 ISS (ZARYA) 1 25544U 98067A 22349.96180387 .00011807 00000-0 21473-3 0 9999 2 25544 51.6429 156.1068 0003974 164.2019 335.9343 15.49972347373376 CXO 1 25867U 99040B 22350.50688168 .00000592 00000-0 00000-0 0 9990 2 25867 40.5464 218.6105 8981371 245.2549 0.0091 0.37815769 12485 ____________________________________________________________________ These 2-Line ...Continue Reading

[list_settings.list_name] Current TLEs

December 15th 2022 PST

HST 1 20580U 90037B 22349.27408213 .00003512 00000-0 19203-3 0 9990 2 20580 28.4712 49.9906 0002546 181.0832 221.6335 15.11408957593851 ISS (ZARYA) 1 25544U 98067A 22349.30278866 .00009455 00000-0 17370-3 0 9994 2 25544 51.6422 159.3698 0004045 164.4393 256.0516 15.49954937373279 CXO 1 25867U 99040B 22350.50688168 .00000592 00000-0 00000-0 0 9990 2 25867 40.5464 218.6105 8981371 245.2549 0.0091 0.37815769 12485 ____________________________________________________________________ These 2-Line ...Continue Reading

[list_settings.list_name] Current TLEs

December 14th 2022 PST

HST 1 20580U 90037B 22347.63575493 .00003055 00000-0 16573-3 0 9992 2 20580 28.4711 60.8602 0002642 164.1637 306.6291 15.11396896593603 ISS (ZARYA) 1 25544U 98067A 22348.47026906 .00009844 00000-0 18059-3 0 9994 2 25544 51.6425 163.4937 0004281 160.9389 291.1918 15.49940320373145 CXO 1 25867U 99040B 22350.50688168 .00000592 00000-0 00000-0 0 9990 2 25867 40.5464 218.6105 8981371 245.2549 0.0091 0.37815769 12485 ____________________________________________________________________ These 2-Line ...Continue Reading

[list_settings.list_name] Current TLEs

December 13th 2022 PST

HST 1 20580U 90037B 22346.64656280 .00003069 00000-0 16653-3 0 9990 2 20580 28.4709 67.4225 0002715 153.9861 323.9060 15.11390711593190 ISS (ZARYA) 1 25544U 98067A 22347.36806257 .00009714 00000-0 17847-3 0 9996 2 25544 51.6426 168.9545 0004121 157.2373 260.7986 15.49917301372976 CXO 1 25867U 99040B 22347.86167614 .00000571 00000-0 00000-0 0 9990 2 25867 40.6264 218.9570 8981412 244.9881 359.9409 0.37812531 12476 ____________________________________________________________________ These 2-Line ...Continue Reading

[list_settings.list_name] Current TLEs

December 12th 2022 PST

HST 1 20580U 90037B 22345.65544329 .00003182 00000-0 17311-3 0 9998 2 20580 28.4707 73.9979 0002765 143.9978 330.5085 15.11384841593041 ISS (ZARYA) 1 25544U 98067A 22346.33648450 .00009866 00000-0 18126-3 0 9990 2 25544 51.6428 174.0649 0004158 154.0377 264.3372 15.49896823372817 CXO 1 25867U 99040B 22347.86167614 .00000571 00000-0 00000+0 0 9999 2 25867 40.6264 218.9570 8981412 244.9881 359.9409 0.37812531 23636 ____________________________________________________________________ These 2-Line ...Continue Reading

[list_settings.list_name] Current TLEs

December 11th 2022 PST

HST 1 20580U 90037B 22344.66433340 .00003124 00000-0 16980-3 0 9995 2 20580 28.4706 80.5731 0002801 134.1458 337.0485 15.11378266592898 ISS (ZARYA) 1 25544U 98067A 22345.36974075 .00011265 00000-0 20589-3 0 9999 2 25544 51.6432 178.8508 0004053 145.6519 275.1366 15.49882460372664 CXO 1 25867U 99040B 22347.86167614 .00000571 00000-0 00000+0 0 9999 2 25867 40.6264 218.9570 8981412 244.9881 359.9409 0.37812531 23636 ____________________________________________________________________ These 2-Line ...Continue Reading

[list_settings.list_name] Current TLEs

December 10th 2022 PST

HST 1 20580U 90037B 22343.53347594 .00003077 00000-0 16709-3 0 9991 2 20580 28.4705 88.0758 0002802 122.4847 303.5520 15.11371065592722 ISS (ZARYA) 1 25544U 98067A 22344.02243399 .00008214 00000-0 15254-3 0 9992 2 25544 51.6418 185.5286 0004101 139.4932 319.0047 15.49847223372459 CXO 1 25867U 99040B 22345.21555117 .00000489 00000-0 00000-0 0 9994 2 25867 40.6949 219.2607 8980000 244.7508 359.7656 0.37807892 12462 ____________________________________________________________________ These 2-Line ...Continue Reading

[list_settings.list_name] Current TLEs

December 9th 2022 PST

HST 1 20580U 90037B 22342.68207863 .00003009 00000-0 16320-3 0 9994 2 20580 28.4702 93.7240 0002819 114.0276 350.4201 15.11365850592596 ISS (ZARYA) 1 25544U 98067A 22343.19186764 .00015362 00000-0 27813-3 0 9997 2 25544 51.6435 189.6427 0004174 139.2103 2.1522 15.49840712372328 CXO 1 25867U 99040B 22345.21555117 .00000489 00000-0 00000-0 0 9994 2 25867 40.6949 219.2607 8980000 244.7508 359.7656 0.37807892 12462 ____________________________________________________________________ These 2-Line ...Continue Reading

[list_settings.list_name] Current TLEs

December 8th 2022 PST

HST 1 20580U 90037B 22342.03249620 .00003374 00000-0 18429-3 0 9997 2 20580 28.4698 98.0331 0002861 108.4902 54.6208 15.11363240592769 ISS (ZARYA) 1 25544U 98067A 22342.35972083 .00009105 00000-0 16844-3 0 9991 2 25544 51.6445 193.7591 0004415 137.7437 37.6864 15.49805683372193 CXO 1 25867U 99040B 22342.57103555 .00000379 00000-0 00000+0 0 9992 2 25867 40.7553 219.5389 8978153 244.5323 359.8109 0.37806251 23614 ____________________________________________________________________ These 2-Line ...Continue Reading
  • This mailing list is a public mailing list - anyone may join or leave, at any time.
  • This mailing list is announce-only.

International Space Station (ISS) / Hubble Space Telescope (HST) / Chandra X-Ray Observatory Orbital Data via EMAIL

Privacy Policy:

Private list